User: anonymous   Login
Location: Rometta
(44.2000°N, 10.0500°E)
Time: 00:12:27
(UTC+00:00)
Language:

CZ-4C R/B - Orbit

View from above orbital plane
View from above orbital plane
View from above satellite
View from above satellite

Ground track
Ground track

The orbit data is extracted from the following two-line orbital elements,

1 32290U 07055B   21102.45469358  .00002463  00000-0  61131-4 0  9994
2 32290  97.6794 277.6419 0058586 185.6875 174.3712 15.39687958746090
Epoch (UTC): 12 April 2021 10:54:45
Eccentricity: 0.0058586
inclination: 97.6794°
perigee height: 407 km
apogee height: 487 km
right ascension of ascending node: 277.6419°
argument of perigee: 185.6875°
revolutions per day: 15.39687958
mean anomaly at epoch: 174.3712°
orbit number at epoch: 74609

The dashed part of the orbit path shows where the satellite is in the earth's shadow,  

DLR